Location: Arnolds Mill
(42.3415°N, 73.5951°W)
Time: 11:42:23
(UTC+00:00)

BlueWalker 3 - Pass Details

Date: 29 June 2024
Orbit: 480 x 492 km, 53.2° (Epoch: 13 July)

Event Time Altitude Azimuth Distance (km) Brightness Sun altitude
Rises 01:28:36 0° 297° (WNW) 2,544 7.3 -8.6°
Reaches altitude 10° 01:31:30 10° 321° (NW) 1,662 6.2 -9.0°
Maximum altitude 01:33:48 15° 359° (N) 1,362 4.8 -9.3°
Drops below altitude 10° 01:36:05 10° 37° (NE) 1,660 4.7 -9.6°
Sets 01:38:59 0° 61° (ENE) 2,538 5.3 -10.0°
